7 * 24
多渠道服务支持
STARLINK-36380(NORAD编号68344)是SpaceX星链(Starlink)低轨互联网星座中的一员,隶属于SpaceX公司全球规模最大的商业卫星互联网项目。星链项目自2015年启动,目标部署4.2万颗卫星,旨在为全球偏远地区、海洋、航空等场景提供高速低时延的互联网接入。该卫星运行于近地轨道,是星链星座万余颗在轨卫星的组成部分,属于Starlink批次组网卫星,承担天基通信转发功能。2026年SpaceX启动降低四千余颗星链卫星轨道高度计划,STARLINK-36380大概率也在此调整范围内,通过降轨提升太空运行安全性,降低碰撞产生太空垃圾的风险,共同支撑星链稳定、安全的全球互联网服务。
美国
(US)
| 数据来源 | 国际轨道数据 |
| 星历时间: | 2026-06-11T22:13:30+0800 1天前 查看轨道信息 |
| 半长轴: | 6855.869km |
| 偏心率: | 0.000117 |
| 轨道倾角: | 53.158° |
| 近地点辐角 | 74.133° |
| 升交点赤经 | 272.736° |
| 平近点角 | 285.980° |
| 近地点: | 476.929km |
| 远地点: | 478.535km |
| 周期: | 94.157分钟 |
| 每日圈数: | 15.293575 |